Location: Erdweis
(48.5167°N, 15.3500°E)
Time: 13:27:26
(UTC+00:00)

USA 234 - Pass Details

Date: 21 January 2021
Orbit: 1100 x 1107 km, 123.0° (Epoch: 01 March)

Event Time Altitude Azimuth Distance (km) Brightness Sun altitude
Exits shadow 17:55:45 38° 66° (ENE) 1,623 3.6 -22.1°
Maximum altitude 17:57:53 52° 17° (NNE) 1,352 3.5 -22.5°
Drops below altitude 10° 18:04:11 10° 304° (NW) 2,968 6.2 -23.5°
Sets 18:06:43 0° 299° (WNW) 3,928 7.1 -23.9°
